Location: Spruce Knob
(38.6995°N, 79.5330°W)
Time: 01:48:56
(UTC-04:00)

Transit 2A - Visible Passes

Search period start: 10 August 2022 00:00
Search period end: 20 August 2022 00:00
Orbit: 601 x 956 km, 66.7° (Epoch: 09 August)

Date Brightness Start Highest point End Pass type
(mag) Time Alt. Az. Time Alt. Az. Time Alt. Az.
10 Aug 7.6 20:42:18 10° NNE 20:44:46 15° NE 20:47:16 10° E visible
10 Aug 5.9 22:23:53 10° NW 22:28:13 61° WSW 22:29:08 49° SSW visible
11 Aug 5.5 21:49:31 10° NNW 21:53:54 84° ENE 21:55:55 33° SSE visible
12 Aug 5.9 21:15:15 10° NNW 21:19:32 52° ENE 21:22:45 18° SE visible
12 Aug 8.0 22:59:56 10° WNW 23:02:14 14° WSW 23:03:15 13° WSW visible
13 Aug 6.5 20:41:08 10° N 20:45:08 34° NE 20:49:18 10° ESE visible
13 Aug 7.6 22:24:36 10° WNW 22:28:03 22° WSW 22:30:10 16° SW visible
14 Aug 6.9 21:49:47 10° NW 21:53:49 35° WSW 21:57:10 15° S visible
15 Aug 6.2 21:15:12 10° NW 21:19:32 56° WSW 21:24:08 10° SSE visible
16 Aug 5.6 20:40:48 10° NNW 20:45:13 89° ENE 20:49:55 10° SSE visible
17 Aug 8.4 21:51:25 10° W 21:53:32 13° WSW 21:55:41 10° SW visible
18 Aug 8.0 21:15:59 10° WNW 21:19:20 21° WSW 21:22:51 10° SSW visible
19 Aug 7.3 20:41:07 10° NW 20:45:06 33° WSW 20:49:20 10° S visible
